GW4457 Weather Reports


Display with metric or nautical units.
time (UTC)temp
F
wind
direction
speed
MPH
gust
MPH
rain 1hr
in
rain 24hr
in
rain mn
in
humidity
%
barometer
mb
20260507060349 77 84 9.0 10.0 0.00 0.00 0.00 84 1021.0
20260507055846 77 108 4.0 9.0 0.00 0.00 0.00 83 1021.2
20260507055340 77 86 11.0 14.0 0.00 0.00 0.00 83 1021.3
20260507054838 77 77 7.0 10.0 0.00 0.00 0.00 82 1021.1
20260507054334 77 73 7.0 10.0 0.00 0.00 0.00 82 1021.3
20260507053831 77 92 8.0 14.0 0.00 0.00 0.00 83 1021.3
20260507053329 77 56 6.0 9.0 0.00 0.00 0.00 83 1021.3
20260507052828 77 77 9.0 11.0 0.00 0.00 0.00 83 1021.5
20260507052324 77 40 8.0 10.0 0.00 0.00 0.00 83 1021.6
20260507051822 77 95 8.0 10.0 0.00 0.00 0.00 83 1021.7
20260507051319 77 78 9.0 10.0 0.00 0.00 0.00 83 1021.7
20260507050816 77 59 7.0 13.0 0.00 0.00 0.00 83 1021.7
20260507050312 77 75 11.0 16.0 0.00 0.00 0.00 83 1021.6
20260507045809 77 64 9.0 11.0 0.00 0.00 0.00 82 1021.9
20260507045306 77 101 9.0 11.0 0.00 0.00 0.00 82 1021.7
20260507044803 77 92 7.0 16.0 0.00 0.00 0.00 81 1022.0
20260507044259 77 65 5.0 14.0 0.00 0.00 0.00 81 1022.0
20260507043755 77 76 11.0 14.0 0.00 0.00 0.00 81 1022.1
20260507043252 77 94 9.0 14.0 0.00 0.00 0.00 82 1022.2
20260507042748 77 61 9.0 11.0 0.00 0.00 0.00 83 1022.1
20260507042243 77 80 7.0 14.0 0.00 0.00 0.00 83 1022.3
20260507041741 77 90 8.0 14.0 0.00 0.00 0.00 83 1022.2
20260507041238 77 128 8.0 13.0 0.00 0.00 0.00 84 1022.3
20260507040735 78 35 8.0 14.0 0.00 0.00 0.00 83 1022.4
20260507040231 77 86 12.0 14.0 0.00 0.00 0.00 83 1022.5
20260507035727 77 24 9.0 11.0 0.00 0.00 0.00 83 1022.5
20260507035222 77 92 7.0 14.0 0.00 0.00 0.00 84 1022.3
20260507034720 77 63 8.0 13.0 0.00 0.00 0.00 84 1022.7
20260507034217 77 64 8.0 15.0 0.00 0.00 0.00 85 1022.5
20260507033715 77 77 7.0 13.0 0.00 0.00 0.00 85 1022.5
20260507033212 77 131 8.0 13.0 0.00 0.00 0.00 85 1022.4
20260507032710 78 51 11.0 13.0 0.00 0.00 0.00 85 1022.6
20260507032205 78 97 9.0 11.0 0.00 0.00 0.00 85 1022.7
20260507031703 78 87 9.0 14.0 0.00 0.00 0.00 85 1022.6
20260507031159 77 51 6.0 14.0 0.00 0.00 0.00 84 1022.9
20260507030656 78 90 7.0 11.0 0.00 0.00 0.00 84 1022.9
20260507030154 78 67 9.0 14.0 0.00 0.00 0.00 85 1022.8
20260507025651 77 119 10.0 15.0 0.00 0.00 0.00 85 1022.8
20260507025147 77 64 9.0 13.0 0.00 0.00 0.00 85 1022.8
20260507024645 78 67 6.0 14.0 0.00 0.00 0.00 85 1022.6
20260507024143 78 25 9.0 16.0 0.00 0.00 0.00 85 1022.8
20260507023638 78 87 5.0 13.0 0.00 0.00 0.00 85 1022.7
20260507023135 78 46 7.0 10.0 0.00 0.00 0.00 85 1022.8
20260507022632 78 51 3.0 11.0 0.00 0.00 0.00 85 1022.8
20260507022128 78 234 4.0 9.0 0.00 0.00 0.00 85 1022.7
20260507021625 78 51 8.0 11.0 0.00 0.00 0.00 85 1022.6
20260507021120 78 48 5.0 10.0 0.00 0.00 0.00 85 1022.5
20260507020619 78 101 8.0 10.0 0.00 0.00 0.00 85 1022.6
20260507020114 78 89 6.0 8.0 0.00 0.00 0.00 85 1022.6
20260507015613 78 71 8.0 13.0 0.00 0.00 0.00 85 1022.3
20260507015110 78 78 8.0 11.0 0.00 0.00 0.00 85 1022.6
20260507014607 77 76 6.0 11.0 0.00 0.00 0.00 86 1022.3
20260507014102 77 78 6.0 9.0 0.00 0.00 0.00 85 1022.3
20260507013559 78 74 6.0 10.0 0.00 0.00 0.00 85 1022.2
20260507013056 78 63 7.0 14.0 0.00 0.00 0.00 85 1022.3
20260507012554 78 31 7.0 13.0 0.00 0.00 0.00 86 1022.2
20260507012049 78 91 9.0 9.0 0.00 0.00 0.00 86 1022.3
20260507011547 78 99 12.0 13.0 0.00 0.00 0.00 86 1022.2
20260507011043 78 93 7.0 11.0 0.00 0.00 0.00 86 1022.2
20260507010538 78 71 7.0 11.0 0.00 0.00 0.00 86 1021.9
20260507010034 78 75 4.0 9.0 0.00 0.00 0.00 86 1022.1
20260507005532 78 78 5.0 10.0 0.00 0.00 0.00 86 1021.9
20260507005028 78 66 5.0 7.0 0.00 0.00 0.00 86 1022.0
20260507004525 78 57 7.0 9.0 0.00 0.00 0.00 86 1022.0
20260507004023 78 92 6.0 9.0 0.00 0.00 0.00 86 1022.0
20260507003518 78 68 9.0 10.0 0.00 0.00 0.00 86 1021.9
20260507003014 78 89 6.0 10.0 0.00 0.00 0.00 86 1021.7
20260507002510 78 85 5.0 9.0 0.00 0.00 0.00 86 1021.8
20260507002006 78 105 7.0 10.0 0.00 0.00 0.00 86 1021.7
20260507001503 78 96 8.0 10.0 0.00 0.00 0.00 85 1021.8
20260507001000 78 32 5.0 7.0 0.00 0.00 0.00 85 1021.8
20260507000456 79 168 6.0 10.0 0.00 0.00 0.00 85 1021.6
20260506235952 79 89 6.0 11.0 0.00 0.00 0.00 85 1021.5
20260506235450 78 108 3.0 7.0 0.00 0.00 0.00 85 1021.5
20260506234945 78 129 6.0 9.0 0.00 0.00 0.00 85 1021.5
20260506234443 78 103 7.0 11.0 0.00 0.00 0.00 85 1021.6
20260506233940 78 132 6.0 8.0 0.00 0.00 0.00 85 1021.3
20260506233436 78 85 4.0 10.0 0.00 0.00 0.00 85 1021.4
20260506232933 78 87 8.0 11.0 0.00 0.00 0.00 85 1021.4
20260506232429 79 200 4.0 13.0 0.00 0.00 0.00 85 1021.0
20260506231925 78 132 9.0 13.0 0.00 0.00 0.00 84 1021.2
20260506231423 78 79 9.0 13.0 0.00 0.00 0.00 84 1021.1
20260506230920 78 123 6.0 13.0 0.00 0.00 0.00 85 1021.0
20260506230416 79 146 9.0 13.0 0.00 0.00 0.00 85 1020.9
20260506225913 79 121 10.0 14.0 0.00 0.00 0.00 85 1020.8
20260506225410 79 93 6.0 11.0 0.00 0.00 0.00 84 1021.1
20260506224907 79 183 9.0 14.0 0.00 0.00 0.00 84 1020.9
20260506224405 79 79 12.0 16.0 0.00 0.00 0.00 84 1020.8
20260506223900 79 111 7.0 11.0 0.00 0.00 0.00 84 1020.8
20260506223356 79 144 6.0 11.0 0.00 0.00 0.00 84 1020.6
20260506222853 79 143 7.0 11.0 0.00 0.00 0.00 83 1020.7
20260506222349 80 216 11.0 16.0 0.00 0.00 0.00 83 1020.6
20260506221847 80 124 7.0 14.0 0.00 0.00 0.00 83 1020.4
20260506221344 80 123 11.0 13.0 0.00 0.00 0.00 83 1020.5
20260506220842 80 100 8.0 13.0 0.00 0.00 0.00 82 1020.5
20260506220337 80 108 11.0 14.0 0.00 0.00 0.00 82 1020.6
20260506215834 80 128 11.0 13.0 0.00 0.00 0.00 81 1020.5
20260506215330 80 123 12.0 16.0 0.00 0.00 0.00 81 1020.4
20260506214826 80 147 11.0 16.0 0.00 0.00 0.00 81 1020.4
20260506214323 80 142 8.0 16.0 0.00 0.00 0.00 80 1020.3
20260506213821 81 121 10.0 14.0 0.00 0.00 0.00 81 1020.4
20260506213318 81 87 12.0 18.0 0.00 0.00 0.00 80 1020.5
20260506212815 81 76 8.0 15.0 0.00 0.00 0.00 79 1020.6
20260506212311 81 100 7.0 18.0 0.00 0.00 0.00 78 1020.5
20260506211806 81 139 10.0 14.0 0.00 0.00 0.00 79 1020.3
20260506211303 81 104 12.0 15.0 0.00 0.00 0.00 78 1020.1
20260506210800 81 106 14.0 17.0 0.00 0.00 0.00 78 1020.4
20260506210257 81 103 10.0 17.0 0.00 0.00 0.00 78 1020.4
20260506205754 82 113 12.0 15.0 0.00 0.00 0.00 76 1020.3
20260506205249 82 75 14.0 21.0 0.00 0.00 0.00 76 1020.4
20260506204746 82 97 12.0 18.0 0.00 0.00 0.00 75 1020.3
20260506204244 83 107 16.0 21.0 0.00 0.00 0.00 74 1020.4
20260506203741 83 133 13.0 17.0 0.00 0.00 0.00 73 1020.1
20260506203239 83 98 14.0 19.0 0.00 0.00 0.00 73 1020.5
20260506202736 83 109 12.0 16.0 0.00 0.00 0.00 74 1020.4
20260506202232 83 236 5.0 11.0 0.00 0.00 0.00 75 1020.2
20260506201729 83 128 11.0 15.0 0.00 0.00 0.00 73 1020.3
20260506201226 84 108 10.0 17.0 0.00 0.00 0.00 72 1020.3
20260506200723 83 69 12.0 17.0 0.00 0.00 0.00 72 1020.2
20260506200220 84 180 12.0 17.0 0.00 0.00 0.00 72 1020.3
20260506195716 84 132 10.0 16.0 0.00 0.00 0.00 72 1020.5
20260506195212 84 77 8.0 13.0 0.00 0.00 0.00 73 1020.4
20260506194704 84 130 9.0 15.0 0.00 0.00 0.00 70 1020.5
20260506194200 84 87 15.0 17.0 0.00 0.00 0.00 70 1020.6
20260506193658 84 156 14.0 19.0 0.00 0.00 0.00 70 1020.6
20260506193155 84 124 12.0 18.0 0.00 0.00 0.00 70 1020.6
20260506192651 85 145 11.0 17.0 0.00 0.00 0.00 70 1020.7
20260506192147 85 153 10.0 14.0 0.00 0.00 0.00 70 1020.8
20260506191645 85 132 11.0 18.0 0.00 0.00 0.00 71 1021.0
20260506191141 85 107 12.0 15.0 0.00 0.00 0.00 69 1020.7
20260506190638 86 90 11.0 18.0 0.00 0.00 0.00 68 1020.8
20260506190135 86 128 11.0 14.0 0.00 0.00 0.00 65 1020.7
20260506185632 86 143 10.0 14.0 0.00 0.00 0.00 69 1020.6
20260506185128 86 147 13.0 17.0 0.00 0.00 0.00 66 1020.6
20260506184626 86 100 14.0 17.0 0.00 0.00 0.00 69 1021.0
20260506184123 86 139 11.0 17.0 0.00 0.00 0.00 68 1020.8
20260506183619 86 177 8.0 18.0 0.00 0.00 0.00 68 1020.9
20260506183115 86 151 11.0 22.0 0.00 0.00 0.00 66 1021.0
20260506182613 87 199 11.0 18.0 0.00 0.00 0.00 68 1021.0
20260506182110 87 98 7.0 14.0 0.00 0.00 0.00 67 1021.0
20260506181608 86 87 13.0 16.0 0.00 0.00 0.00 67 1021.1
20260506181105 86 163 8.0 16.0 0.00 0.00 0.00 71 1021.2
20260506180601 86 172 11.0 22.0 0.00 0.00 0.00 71 1021.3
20260506180058 86 171 8.0 15.0 0.00 0.00 0.00 67 1021.3
20260506175554 86 71 14.0 17.0 0.00 0.00 0.00 67 1021.5
20260506175050 86 117 15.0 17.0 0.00 0.00 0.00 68 1021.5
20260506174549 87 100 15.0 19.0 0.00 0.00 0.00 66 1021.6
20260506174045 87 134 12.0 17.0 0.00 0.00 0.00 65 1021.9
20260506173543 87 93 15.0 18.0 0.00 0.00 0.00 63 1021.8
20260506173039 87 189 11.0 16.0 0.00 0.00 0.00 65 1021.6
20260506172537 87 181 9.0 17.0 0.00 0.00 0.00 65 1021.8
20260506172033 86 97 13.0 18.0 0.00 0.00 0.00 66 1022.0
20260506171531 87 109 17.0 22.0 0.00 0.00 0.00 66 1022.1
20260506171028 88 111 13.0 22.0 0.00 0.00 0.00 64 1022.2
20260506170526 87 70 13.0 17.0 0.00 0.00 0.00 66 1022.2
20260506170023 87 115 15.0 18.0 0.00 0.00 0.00 66 1022.3
20260506165521 87 52 8.0 18.0 0.00 0.00 0.00 65 1022.4
20260506165017 87 113 15.0 21.0 0.00 0.00 0.00 66 1022.4
20260506164514 87 126 13.0 18.0 0.00 0.00 0.00 68 1022.5
20260506164012 86 207 7.0 16.0 0.00 0.00 0.00 69 1022.6
20260506163508 87 129 12.0 21.0 0.00 0.00 0.00 68 1022.8
20260506163003 86 101 13.0 21.0 0.00 0.00 0.00 68 1022.8
20260506162500 87 136 11.0 21.0 0.00 0.00 0.00 65 1022.9
20260506161957 88 124 10.0 16.0 0.00 0.00 0.00 63 1022.8
20260506161455 86 86 9.0 16.0 0.00 0.00 0.00 68 1022.7
20260506160952 86 132 14.0 21.0 0.00 0.00 0.00 66 1022.7
20260506160449 86 148 13.0 19.0 0.00 0.00 0.00 68 1022.8
20260506155946 87 109 14.0 23.0 0.00 0.00 0.00 66 1022.9
20260506155444 87 95 12.0 19.0 0.00 0.00 0.00 68 1022.9
20260506153610 87 87 9.0 17.0 0.00 0.00 0.00 66 1023.0
20260506153108 87 96 15.0 21.0 0.00 0.00 0.00 65 1023.1
20260506152605 87 144 11.0 19.0 0.00 0.00 0.00 66 1023.2
20260506152102 86 134 13.0 19.0 0.00 0.00 0.00 65 1023.3
20260506151600 87 116 11.0 19.0 0.00 0.00 0.00 68 1023.1
20260506151057 86 152 9.0 21.0 0.00 0.00 0.00 69 1023.4
20260506150554 86 145 12.0 16.0 0.00 0.00 0.00 69 1023.1
20260506150051 87 42 11.0 16.0 0.00 0.00 0.00 67 1023.1
20260506145547 87 123 15.0 19.0 0.00 0.00 0.00 66 1023.0
20260506145045 87 111 12.0 19.0 0.00 0.00 0.00 65 1023.1
20260506144542 87 149 13.0 17.0 0.00 0.00 0.00 66 1023.0
20260506144039 87 132 13.0 21.0 0.00 0.00 0.00 66 1023.0
20260506143536 87 114 10.0 17.0 0.00 0.00 0.00 63 1022.9
20260506143035 87 74 7.0 23.0 0.00 0.00 0.00 67 1023.1
20260506142532 86 159 10.0 15.0 0.00 0.00 0.00 67 1023.0
20260506142030 86 46 14.0 18.0 0.00 0.00 0.00 67 1022.9
20260506141528 86 167 11.0 13.0 0.00 0.00 0.00 67 1023.1
20260506141026 86 75 13.0 19.0 0.00 0.00 0.00 67 1023.0
20260506140523 86 83 9.0 19.0 0.00 0.00 0.00 67 1022.8
20260506140020 86 186 5.0 17.0 0.00 0.00 0.00 64 1023.0
20260506135517 86 101 7.0 18.0 0.00 0.00 0.00 66 1022.9
20260506135013 86 151 7.0 19.0 0.00 0.00 0.00 66 1023.0
20260506134509 86 143 13.0 17.0 0.00 0.00 0.00 66 1023.0
20260506134006 86 121 16.0 19.0 0.00 0.00 0.00 65 1023.1
20260506133503 85 188 9.0 19.0 0.00 0.00 0.00 67 1023.1
20260506132959 85 109 16.0 19.0 0.00 0.00 0.00 66 1023.0
20260506132457 85 109 11.0 16.0 0.00 0.00 0.00 66 1023.1
20260506131954 86 120 9.0 15.0 0.00 0.00 0.00 65 1022.8
20260506131451 86 146 12.0 15.0 0.00 0.00 0.00 64 1022.8
20260506130948 85 104 9.0 15.0 0.00 0.00 0.00 67 1022.8
20260506130444 85 168 9.0 19.0 0.00 0.00 0.00 65 1022.8
20260506125942 85 110 8.0 15.0 0.00 0.00 0.00 66 1022.7
20260506125440 84 155 9.0 16.0 0.00 0.00 0.00 67 1022.6
20260506124938 84 104 10.0 16.0 0.00 0.00 0.00 68 1022.5
20260506124435 85 149 6.0 16.0 0.00 0.00 0.00 67 1022.5
20260506123933 84 101 9.0 13.0 0.00 0.00 0.00 69 1022.2
20260506123431 83 117 8.0 11.0 0.00 0.00 0.00 70 1022.4
20260506122928 83 119 12.0 15.0 0.00 0.00 0.00 70 1022.3
20260506122425 83 141 14.0 16.0 0.00 0.00 0.00 69 1022.4
20260506121923 83 120 8.0 15.0 0.00 0.00 0.00 71 1022.4
20260506121420 83 79 10.0 16.0 0.00 0.00 0.00 70 1022.4
20260506120917 82 88 4.0 17.0 0.00 0.00 0.00 71 1022.3
20260506120414 82 69 5.0 13.0 0.00 0.00 0.00 72 1022.3
20260506115911 82 158 5.0 15.0 0.00 0.00 0.00 72 1022.3
20260506115409 81 218 7.0 11.0 0.00 0.00 0.00 72 1022.2
20260506114908 81 94 6.0 14.0 0.00 0.00 0.00 72 1021.9
20260506114405 81 87 13.0 18.0 0.00 0.00 0.00 72 1021.9
20260506113904 80 92 5.0 10.0 0.00 0.00 0.00 74 1022.1
20260506113401 80 91 12.0 16.0 0.00 0.00 0.00 74 1022.1
20260506112857 79 87 8.0 13.0 0.00 0.00 0.00 76 1021.8
20260506112354 79 89 11.0 15.0 0.00 0.00 0.00 76 1022.0
20260506111851 78 111 10.0 15.0 0.00 0.00 0.00 77 1022.1
20260506111350 78 73 12.0 16.0 0.00 0.00 0.00 77 1021.9
20260506110847 78 87 10.0 19.0 0.00 0.00 0.00 78 1021.9
20260506110344 78 75 11.0 15.0 0.00 0.00 0.00 78 1022.0
20260506105841 77 81 6.0 14.0 0.00 0.00 0.00 79 1021.9
20260506105337 77 94 12.0 19.0 0.00 0.00 0.00 79 1022.0
20260506104835 77 68 10.0 21.0 0.00 0.00 0.00 78 1021.7
20260506104332 77 90 11.0 14.0 0.00 0.00 0.00 79 1021.8
20260506103830 77 42 13.0 16.0 0.00 0.00 0.00 79 1021.9
20260506103327 76 86 11.0 15.0 0.00 0.00 0.00 79 1021.8
20260506102824 76 85 10.0 16.0 0.00 0.00 0.00 80 1021.9
20260506102322 76 87 8.0 15.0 0.00 0.00 0.00 80 1021.7
20260506101819 75 102 10.0 13.0 0.00 0.00 0.00 80 1021.5
20260506101315 75 87 10.0 15.0 0.00 0.00 0.00 80 1021.5
20260506100813 75 111 7.0 18.0 0.00 0.00 0.00 81 1021.5
20260506100312 75 24 6.0 15.0 0.00 0.00 0.00 81 1021.4
20260506095809 75 68 12.0 15.0 0.00 0.00 0.00 82 1021.4
20260506095306 75 69 11.0 15.0 0.00 0.00 0.00 82 1021.4
20260506094803 75 55 11.0 13.0 0.00 0.00 0.00 82 1021.3
20260506094301 75 89 11.0 15.0 0.00 0.00 0.00 82 1021.3
20260506093759 75 297 11.0 14.0 0.00 0.00 0.00 82 1021.3
20260506093256 75 61 8.0 21.0 0.00 0.00 0.00 83 1021.3
20260506092754 75 74 9.0 15.0 0.00 0.00 0.00 83 1021.2
20260506092252 75 65 14.0 16.0 0.00 0.00 0.00 83 1021.1
20260506091749 75 84 10.0 14.0 0.00 0.00 0.00 83 1021.2
20260506091246 75 69 9.0 14.0 0.00 0.00 0.00 83 1021.1
20260506090744 75 75 10.0 17.0 0.00 0.00 0.00 83 1021.0
20260506090241 75 73 10.0 16.0 0.00 0.00 0.00 83 1021.2
20260506085738 75 96 8.0 16.0 0.00 0.00 0.00 82 1021.1
20260506085234 75 44 14.0 19.0 0.00 0.00 0.00 82 1021.1
20260506084730 75 144 11.0 17.0 0.00 0.00 0.00 82 1021.0
20260506084226 75 74 9.0 15.0 0.00 0.00 0.00 82 1021.0
20260506083724 75 66 10.0 16.0 0.00 0.00 0.00 82 1021.2
20260506083222 75 83 14.0 19.0 0.00 0.00 0.00 82 1020.9
20260506082719 75 84 9.0 15.0 0.00 0.00 0.00 82 1021.1
20260506082214 76 76 8.0 16.0 0.00 0.00 0.00 82 1020.9
20260506081707 76 100 10.0 15.0 0.00 0.00 0.00 82 1021.0
20260506081204 75 123 12.0 16.0 0.00 0.00 0.00 83 1020.9
20260506080701 76 95 8.0 15.0 0.00 0.00 0.00 83 1020.7
20260506080158 75 85 9.0 15.0 0.00 0.00 0.00 84 1020.8
20260506073141 75 73 7.0 10.0 0.00 0.00 0.00 85 1020.6
20260506072638 75 74 12.0 15.0 0.00 0.00 0.00 85 1020.7
20260506072136 75 85 10.0 16.0 0.00 0.00 0.00 85 1020.7
20260506071633 75 110 6.0 14.0 0.00 0.00 0.00 85 1020.8
20260506071131 75 104 10.0 14.0 0.00 0.00 0.00 84 1020.7
20260506070627 75 84 8.0 13.0 0.00 0.00 0.00 84 1020.7
20260506070125 75 102 9.0 14.0 0.00 0.00 0.00 84 1021.0
20260506062103 76 69 6.0 17.0 0.00 0.00 0.00 82 1021.0
20260506061557 76 77 10.0 17.0 0.00 0.00 0.00 82 1021.0
20260506061055 76 48 9.0 14.0 0.00 0.00 0.00 82 1021.1